Tracking 19485 objects as of 21-Jan-2019
HD Live streaming from Space Station
objects crossing your sky now

ESSA 5

Track ESSA 5 now!
10-day predictions
ESSA 5 is classified as:


NORAD ID: 2757
Int'l Code: 1967-036A
Perigee: 1,361.7 km
Apogee: 1,428.7 km
Inclination: 101.8 °
Period: 113.5 minutes
Semi major axis: 7766 km
RCS: 0.8456 m2 (medium)
Launch date: April 20, 1967
Source: United States (US)
Launch site: AIR FORCE WESTERN TEST RANGE (AFWTR)
aabbcc
Your satellite tracking list
Your tracking list is empty




NASA's NSSDC Master Catalog

Two Line Element Set (TLE):
1  2757U 67036A   19019.82164149 -.00000042  00000-0  29606-4 0  9992
2  2757 101.8341  92.4819 0043090 190.8093 279.1445 12.68499437396384
Source of the keplerian elements: AFSPC